Hourly Weather Aizkraukle

Today, 14 June, Monday

Time Temperature Precipitation Wind Pressure Humidity
00:00 +9°C° 0 mm 3 mps 758 mmHg 81%
01:00 +8°C° 0 mm 3 mps 758 mmHg 86%
02:00 +8°C° 0 mm 2 mps 758 mmHg 91%
03:00 +8°C° 0 mm 2 mps 759 mmHg 89%
04:00 +8°C° 0 mm 2 mps 759 mmHg 87%
05:00 +8°C° 0 mm 2 mps 759 mmHg 86%
06:00 +12°C° 0 mm 2 mps 760 mmHg 75%
07:00 +13°C° 0 mm 3 mps 760 mmHg 64%
08:00 +16°C° 0 mm 3 mps 760 mmHg 54%
09:00 +17°C° 0 mm 2 mps 760 mmHg 49%
10:00 +18°C° 0 mm 2 mps 760 mmHg 44%
11:00 +20°C° 0 mm 2 mps 760 mmHg 39%
12:00 +21°C° 0 mm 2 mps 760 mmHg 37%
13:00 +22°C° 0 mm 1 mps 760 mmHg 35%
14:00 +23°C° 0 mm 1 mps 760 mmHg 33%
15:00 +23°C° 0 mm 1 mps 759 mmHg 34%
16:00 +23°C° 0 mm 2 mps 759 mmHg 35%
17:00 +23°C° 0 mm 2 mps 759 mmHg 36%
18:00 +20°C° 0 mm 2 mps 759 mmHg 48%
19:00 +18°C° 0 mm 2 mps 759 mmHg 60%
20:00 +16°C° 0 mm 2 mps 758 mmHg 72%
21:00 +15°C° 0 mm 2 mps 758 mmHg 77%
22:00 +14°C° 0 mm 2 mps 758 mmHg 82%
23:00 +12°C° 0 mm 2 mps 758 mmHg 87%

Tomorrow, 15 June, Tuesday

Time Temperature Precipitation Wind Pressure Humidity
00:00 +12°C° 0 mm 2 mps 758 mmHg 87%
01:00 +12°C° 0 mm 2 mps 757 mmHg 88%
02:00 +10°C° 0 mm 2 mps 757 mmHg 89%
03:00 +11°C° 0 mm 3 mps 757 mmHg 86%
04:00 +11°C° 0 mm 3 mps 757 mmHg 84%
05:00 +12°C° 0 mm 3 mps 757 mmHg 81%
06:00 +13°C° 0 mm 3 mps 756 mmHg 77%
07:00 +15°C° 0 mm 4 mps 756 mmHg 73%
08:00 +18°C° 0 mm 4 mps 756 mmHg 69%
09:00 +18°C° 0.3 mm 4 mps 756 mmHg 75%
10:00 +18°C° 0.3 mm 4 mps 756 mmHg 82%
11:00 +18°C° 0.3 mm 4 mps 756 mmHg 88%
12:00 +18°C° 0.2 mm 4 mps 756 mmHg 87%
13:00 +18°C° 0.2 mm 4 mps 756 mmHg 86%
14:00 +19°C° 0.2 mm 4 mps 756 mmHg 85%
15:00 +20°C° 0.1 mm 4 mps 756 mmHg 74%
16:00 +20°C° 0.1 mm 4 mps 756 mmHg 64%
17:00 +21°C° 0.1 mm 4 mps 756 mmHg 54%
18:00 +19°C° 0 mm 3 mps 756 mmHg 59%
19:00 +17°C° 0 mm 3 mps 756 mmHg 65%
20:00 +16°C° 0 mm 3 mps 757 mmHg 71%
21:00 +14°C° 0 mm 2 mps 757 mmHg 77%
22:00 +12°C° 0 mm 2 mps 758 mmHg 83%
23:00 +9°C° 0 mm 2 mps 758 mmHg 90%

Day after tomorrow, 16 June, Wednesday

Time Temperature Precipitation Wind Pressure Humidity
00:00 +10°C° 0 mm 1 mps 758 mmHg 92%
01:00 +9°C° 0 mm 1 mps 759 mmHg 93%
02:00 +9°C° 0 mm 1 mps 759 mmHg 95%
03:00 +9°C° 0 mm 1 mps 760 mmHg 94%
04:00 +10°C° 0 mm 1 mps 760 mmHg 93%
05:00 +10°C° 0 mm 1 mps 760 mmHg 92%
06:00 +12°C° 0 mm 1 mps 760 mmHg 82%
07:00 +13°C° 0 mm 0 mps 761 mmHg 73%
08:00 +16°C° 0 mm 0 mps 761 mmHg 64%
09:00 +17°C° 0 mm 0 mps 761 mmHg 57%
10:00 +20°C° 0 mm 1 mps 761 mmHg 51%
11:00 +22°C° 0 mm 1 mps 761 mmHg 44%
12:00 +22°C° 0 mm 1 mps 761 mmHg 42%
13:00 +23°C° 0 mm 2 mps 761 mmHg 41%
14:00 +23°C° 0 mm 2 mps 761 mmHg 39%
15:00 +23°C° 0 mm 2 mps 761 mmHg 41%
16:00 +23°C° 0 mm 2 mps 761 mmHg 42%
17:00 +23°C° 0 mm 2 mps 761 mmHg 44%
18:00 +21°C° 0 mm 2 mps 761 mmHg 54%
19:00 +19°C° 0 mm 2 mps 761 mmHg 65%
20:00 +18°C° 0 mm 2 mps 761 mmHg 75%
21:00 +16°C° 0 mm 2 mps 762 mmHg 79%
22:00 +15°C° 0 mm 1 mps 762 mmHg 83%
23:00 +14°C° 0 mm 1 mps 762 mmHg 87%

17 June, Thursday

Time Temperature Precipitation Wind Pressure Humidity
00:00 +13°C° 0 mm 1 mps 762 mmHg 89%
01:00 +13°C° 0 mm 1 mps 763 mmHg 91%
02:00 +12°C° 0 mm 1 mps 763 mmHg 93%
03:00 +12°C° 0 mm 1 mps 763 mmHg 92%
04:00 +12°C° 0 mm 0 mps 763 mmHg 90%
05:00 +12°C° 0 mm 0 mps 763 mmHg 88%
06:00 +15°C° 0 mm 1 mps 764 mmHg 80%
07:00 +18°C° 0 mm 1 mps 764 mmHg 72%
08:00 +21°C° 0 mm 1 mps 764 mmHg 63%
09:00 +22°C° 0 mm 1 mps 764 mmHg 59%
10:00 +23°C° 0 mm 1 mps 764 mmHg 55%
11:00 +25°C° 0 mm 1 mps 764 mmHg 51%
12:00 +25°C° 0 mm 2 mps 764 mmHg 49%
13:00 +26°C° 0 mm 2 mps 764 mmHg 47%
14:00 +27°C° 0 mm 2 mps 764 mmHg 44%
15:00 +26°C° 0 mm 2 mps 764 mmHg 45%
16:00 +26°C° 0 mm 2 mps 764 mmHg 47%
17:00 +26°C° 0 mm 2 mps 764 mmHg 48%
18:00 +25°C° 0 mm 2 mps 764 mmHg 57%
19:00 +23°C° 0 mm 1 mps 764 mmHg 67%
20:00 +21°C° 0 mm 1 mps 764 mmHg 77%
21:00 +20°C° 0 mm 1 mps 764 mmHg 81%
22:00 +18°C° 0 mm 1 mps 764 mmHg 84%
23:00 +16°C° 0 mm 1 mps 764 mmHg 88%

18 June, Friday

Time Temperature Precipitation Wind Pressure Humidity
00:00 +16°C° 0 mm 1 mps 764 mmHg 89%
01:00 +15°C° 0 mm 1 mps 764 mmHg 90%
02:00 +15°C° 0 mm 2 mps 764 mmHg 91%
03:00 +15°C° 0 mm 2 mps 764 mmHg 90%
04:00 +15°C° 0 mm 1 mps 764 mmHg 90%
05:00 +15°C° 0 mm 1 mps 764 mmHg 89%
06:00 +17°C° 0 mm 2 mps 764 mmHg 81%
07:00 +20°C° 0 mm 2 mps 764 mmHg 72%
08:00 +23°C° 0 mm 2 mps 764 mmHg 64%
09:00 +24°C° 0 mm 2 mps 764 mmHg 58%
10:00 +26°C° 0 mm 3 mps 764 mmHg 52%
11:00 +27°C° 0 mm 3 mps 764 mmHg 47%
12:00 +28°C° 0 mm 3 mps 763 mmHg 46%
13:00 +28°C° 0 mm 3 mps 763 mmHg 44%
14:00 +29°C° 0 mm 4 mps 763 mmHg 43%
15:00 +29°C° 0 mm 3 mps 763 mmHg 45%
16:00 +28°C° 0 mm 3 mps 763 mmHg 47%
17:00 +28°C° 0 mm 3 mps 763 mmHg 49%
18:00 +26°C° 0 mm 3 mps 763 mmHg 58%
19:00 +25°C° 0 mm 2 mps 763 mmHg 67%
20:00 +23°C° 0 mm 1 mps 763 mmHg 77%
21:00 +21°C° 0 mm 2 mps 763 mmHg 80%
22:00 +19°C° 0 mm 2 mps 763 mmHg 82%
23:00 +18°C° 0 mm 2 mps 763 mmHg 85%

19 June, Saturday

Time Temperature Precipitation Wind Pressure Humidity
00:00 +18°C° 0 mm 2 mps 764 mmHg 88%
01:00 +17°C° 0 mm 2 mps 764 mmHg 91%
02:00 +17°C° 0 mm 2 mps 764 mmHg 93%
03:00 +17°C° 0 mm 2 mps 764 mmHg 92%
04:00 +17°C° 0 mm 2 mps 764 mmHg 92%
05:00 +17°C° 0 mm 2 mps 764 mmHg 91%
06:00 +19°C° 0 mm 2 mps 764 mmHg 82%
07:00 +21°C° 0 mm 2 mps 764 mmHg 73%
08:00 +24°C° 0 mm 2 mps 764 mmHg 64%
09:00 +25°C° 0 mm 2 mps 764 mmHg 59%
10:00 +27°C° 0 mm 3 mps 764 mmHg 53%
11:00 +28°C° 0 mm 3 mps 764 mmHg 48%
12:00 +29°C° 0 mm 3 mps 764 mmHg 46%
13:00 +29°C° 0 mm 3 mps 764 mmHg 44%
14:00 +30°C° 0 mm 3 mps 763 mmHg 42%
15:00 +30°C° 0 mm 3 mps 763 mmHg 44%
16:00 +29°C° 0 mm 3 mps 763 mmHg 46%
17:00 +29°C° 0 mm 3 mps 763 mmHg 48%
18:00 +27°C° 0 mm 2 mps 763 mmHg 58%
19:00 +26°C° 0 mm 1 mps 763 mmHg 68%
20:00 +24°C° 0 mm 1 mps 763 mmHg 78%
21:00 +23°C° 0 mm 1 mps 763 mmHg 81%
22:00 +22°C° 0 mm 1 mps 763 mmHg 85%
23:00 +21°C° 0 mm 1 mps 763 mmHg 88%
Show more

We Need Your Consent

Meteoprog and our Service Providers may store and access personal data such as cookies, device identifiers or other similar technologies on your device and process such data to personalise content and ads, as well as provide social media features and to analyse the traffic.

  • Store and/or access information on your device

    Cookies, device identifiers or other information can be stored or accessed on your device for the purposes indicated above.

  • Personalised ads and content, ad and content measurement, audience insights, and products development

    Ads and content can be personalised based on a profile. More data can be added to better personalise ads and content. Ad and content performance can be measured. Insights about the audience who saw the ads and content can be derived. Such data can be used to develop or improve user’s experience, systems and software.

By clicking ‘I Agree’ you will allow the use of indicated cookies, device identifiers, web beacons or other similar technologies. Your settings can be changed in the browser on your device.

For certain purposes, legitimate interests may be relied on, rather than consent. You can read more about this in our Privacy and Cookie Policy.